Weather History for Jennings, LA

Change the Weather History Date:

Saturday, July 6, 2013

  Actual Average (KLCH) Record (KLCH)
Temperature  
Mean Temperature 78 °F 83 °F  
Max Temperature 88 °F 91 °F 101 °F (1914)
Min Temperature 70 °F 75 °F 65 °F (1968)
Degree Days  
Heating Degree Days 0 0  
Month to date heating degree days 0  
Since 1 June heating degree days 0  
Since 1 July heating degree days 0  
Cooling Degree Days 14 18  
Month to date cooling degree days 105  
Year to date cooling degree days 1123  
Since 1 June cooling degree days 585  
Growing Degree Days 28 (Base 50)    
Moisture  
Dew Point 72 °F    
Average Humidity 84    
Maximum Humidity 98    
Minimum Humidity 62    
Precipitation  
Precipitation 0.00 in 0.21 in 3.36 in (2007)
Month to date precipitation 1.25  
Year to date precipitation 28.98  
Snow  
Snow 0.00 in 0.00 in 0.00 in ()
Month to date snowfall 0.0  
Since 1 June snowfall 0.0  
Since 1 July snowfall 0.0  
Snow Depth -    
Sea Level Pressure  
Sea Level Pressure 29.95 in    
Wind  
Wind Speed 7 mph (ESE)    
Max Wind Speed 15 mph    
Max Gust Speed 24 mph    
Visibility 10 miles    
Events Thunderstorm    
T = Trace of Precipitation, MM = Missing Value Source: NWS Daily Summary

Daily Weather History Graph

Daily Weather History Graph

Search for Another Location

Airport:

Trip Planner

Search our weather history database for the weather conditions in past years. The results will help you decide how hot, cold, wet, or windy it might be!

Date:

Astronomy

Jul. 06, 2013 Rise Set
Actual Time 6:14 AM CDT 8:16 PM CDT
Civil Twilight 5:47 AM CDT 8:43 PM CDT
Nautical Twilight 5:14 AM CDT 9:16 PM CDT
Astronomical Twilight 4:39 AM CDT 9:51 PM CDT
Moon 4:57 AM CDT (7/6) 7:01 PM CDT (7/6)
Length of Visible Light 14h 55m
Length of Day
14h 01m
Waning Crescent, 2% of the Moon is Illuminated
Jul 6
Waning Crescent
Jul 8
New
Jul 15
First Quarter
Jul 22
Full
Jul 29
Last Quarter

Hourly Weather History & Observations

Time (CDT) Temp. Heat Index Dew Point Humidity Pressure Visibility Wind Dir Wind Speed Gust Speed Precip Events Conditions
12:15 AM 72.9 °F - 70.2 °F 91% 29.96 in 10.0 mi ESE 5.8 mph - N/A   Clear
12:35 AM 72.9 °F - 70.3 °F 92% 29.96 in 10.0 mi ESE 6.9 mph - N/A   Clear
12:55 AM 72.5 °F - 70.2 °F 92% 29.97 in 10.0 mi East 5.8 mph - N/A   Clear
1:15 AM 72.1 °F - 70.2 °F 93% 29.97 in 10.0 mi East 5.8 mph - N/A   Clear
1:35 AM 71.8 °F - 70.0 °F 94% 29.97 in 10.0 mi East 5.8 mph - N/A   Clear
1:55 AM 71.6 °F - 70.0 °F 95% 29.96 in 10.0 mi East 6.9 mph - N/A   Clear
2:15 AM 71.6 °F - 69.8 °F 94% 29.96 in 10.0 mi East 5.8 mph - N/A   Clear
2:35 AM 71.6 °F - 69.8 °F 94% 29.96 in 10.0 mi North - - N/A   Clear
2:55 AM 71.2 °F - 69.8 °F 95% 29.95 in 10.0 mi East 6.9 mph - N/A   Clear
3:15 AM 71.1 °F - 70.0 °F 96% 29.95 in 10.0 mi North - - N/A   Clear
3:35 AM 70.9 °F - 69.8 °F 96% 29.95 in 10.0 mi East 3.5 mph - N/A   Clear
3:55 AM 70.9 °F - 69.8 °F 96% 29.95 in 10.0 mi East 4.6 mph - N/A   Clear
4:15 AM 70.7 °F - 69.8 °F 97% 29.95 in 10.0 mi North - - N/A   Clear
4:35 AM 70.5 °F - 69.4 °F 96% 29.95 in 10.0 mi North - - N/A   Clear
4:55 AM 70.3 °F - 69.6 °F 98% 29.96 in 10.0 mi East 8.1 mph - N/A   Clear
5:15 AM 70.3 °F - 69.4 °F 97% 29.96 in 10.0 mi East 5.8 mph - N/A   Clear
5:35 AM 70.3 °F - 69.4 °F 97% 29.95 in 10.0 mi North - - N/A   Clear
5:55 AM 70.3 °F - 69.6 °F 98% 29.95 in 10.0 mi North - - N/A   Clear
6:15 AM 70.3 °F - 69.6 °F 98% 29.95 in 10.0 mi North - - N/A   Clear
6:35 AM 70.3 °F - 69.8 °F 98% 29.96 in 10.0 mi NE 4.6 mph - N/A   Scattered Clouds
6:55 AM 70.7 °F - 69.8 °F 97% 29.96 in 10.0 mi North - - N/A   Scattered Clouds
7:15 AM 71.6 °F - 70.3 °F 96% 29.96 in 10.0 mi North - - N/A   Clear
7:35 AM 72.9 °F - 71.1 °F 94% 29.97 in 10.0 mi East 8.1 mph - N/A   Clear
7:55 AM 73.4 °F - 71.2 °F 93% 29.97 in 10.0 mi East 5.8 mph - N/A   Scattered Clouds
8:15 AM 74.1 °F - 71.8 °F 92% 29.98 in 10.0 mi North - - N/A   Scattered Clouds
8:35 AM 75.6 °F - 72.1 °F 89% 29.97 in 10.0 mi North - - N/A   Clear
8:55 AM 77.0 °F - 72.7 °F 86% 29.98 in 10.0 mi East 5.8 mph - N/A   Clear
9:15 AM 77.7 °F - 73.2 °F 86% 29.98 in 10.0 mi East 5.8 mph - N/A   Clear
9:35 AM 78.4 °F - 73.2 °F 84% 29.97 in 10.0 mi ESE 4.6 mph - N/A   Clear
9:55 AM 80.1 °F 84.5 °F 73.6 °F 81% 29.97 in 10.0 mi ESE 6.9 mph - N/A   Scattered Clouds
10:15 AM 80.1 °F 84.5 °F 73.9 °F 81% 29.97 in 10.0 mi East 8.1 mph - N/A   Overcast
10:35 AM 80.2 °F 84.9 °F 73.8 °F 81% 29.98 in 10.0 mi East 6.9 mph - N/A   Overcast
10:55 AM 80.6 °F 85.5 °F 73.8 °F 80% 29.97 in 10.0 mi North - - N/A   Overcast
11:15 AM 80.6 °F 85.7 °F 74.1 °F 81% 29.97 in 10.0 mi North - - N/A   Overcast
11:35 AM 81.9 °F 88.0 °F 74.3 °F 78% 29.97 in 10.0 mi NE 5.8 mph - N/A   Mostly Cloudy
11:55 AM 82.4 °F 88.4 °F 73.8 °F 75% 29.98 in 10.0 mi ENE 5.8 mph - N/A   Scattered Clouds
12:15 PM 82.9 °F 89.4 °F 73.9 °F 74% 29.97 in 10.0 mi ENE 6.9 mph - N/A   Mostly Cloudy
12:35 PM 83.5 °F 90.6 °F 74.3 °F 74% 29.96 in 10.0 mi ENE 4.6 mph - N/A   Scattered Clouds
12:55 PM 82.8 °F 89.2 °F 74.1 °F 75% 29.96 in 10.0 mi East 8.1 mph - N/A   Mostly Cloudy
1:15 PM 84.2 °F 91.6 °F 74.3 °F 72% 29.96 in 10.0 mi SSE 4.6 mph - N/A   Overcast
1:35 PM 84.9 °F 92.1 °F 73.8 °F 69% 29.95 in 10.0 mi ESE 4.6 mph - N/A   Scattered Clouds
1:55 PM 85.1 °F 91.8 °F 73.0 °F 67% 29.94 in 10.0 mi Calm Calm - N/A   Scattered Clouds
2:15 PM 85.8 °F 92.6 °F 72.7 °F 65% 29.94 in 10.0 mi ENE 5.8 mph - N/A   Mostly Cloudy
2:35 PM 86.9 °F 94.1 °F 72.9 °F 63% 29.93 in 10.0 mi SSE 3.5 mph - N/A Thunderstorm Scattered Clouds
2:55 PM 87.6 °F 95.2 °F 73.0 °F 62% 29.93 in 10.0 mi East 8.1 mph - N/A Thunderstorm Scattered Clouds
3:15 PM 82.4 °F 88.2 °F 73.4 °F 74% 29.94 in 10.0 mi ESE 13.8 mph 24.2 mph N/A Thunderstorm Overcast
3:35 PM 81.9 °F 88.2 °F 74.7 °F 79% 29.93 in 10.0 mi SE 5.8 mph - N/A   Light Drizzle
3:55 PM 83.1 °F 89.5 °F 73.8 °F 73% 29.92 in 10.0 mi SE 9.2 mph - N/A   Mostly Cloudy
4:15 PM 84.4 °F 91.7 °F 73.9 °F 71% 29.92 in 10.0 mi SE 8.1 mph - N/A   Clear
4:35 PM 84.0 °F 90.2 °F 72.9 °F 69% 29.92 in 10.0 mi SSE 10.4 mph - N/A   Clear
4:55 PM 84.7 °F 91.0 °F 72.9 °F 67% 29.92 in 10.0 mi SE 9.2 mph - N/A   Clear
5:15 PM 85.8 °F 92.6 °F 72.9 °F 65% 29.92 in 10.0 mi SE 15.0 mph 19.6 mph N/A   Scattered Clouds
5:35 PM 86.0 °F 93.4 °F 73.4 °F 66% 29.92 in 10.0 mi East 13.8 mph - N/A   Scattered Clouds
5:55 PM 85.5 °F 92.6 °F 73.4 °F 67% 29.91 in 10.0 mi ESE 10.4 mph - N/A   Clear
6:15 PM 85.1 °F 92.9 °F 74.1 °F 70% 29.91 in 10.0 mi ESE 12.7 mph - N/A   Clear
6:35 PM 84.6 °F 91.7 °F 73.9 °F 70% 29.91 in 10.0 mi ESE 9.2 mph - N/A   Scattered Clouds
6:55 PM 83.3 °F 89.9 °F 73.9 °F 73% 29.92 in 10.0 mi East 11.5 mph - N/A   Scattered Clouds
7:15 PM 83.7 °F 90.7 °F 74.1 °F 73% 29.92 in 10.0 mi ESE 8.1 mph - N/A   Scattered Clouds
7:35 PM 83.5 °F 90.9 °F 74.8 °F 75% 29.92 in 10.0 mi ESE 8.1 mph 16.1 mph N/A   Scattered Clouds
7:55 PM 82.2 °F 89.1 °F 75.0 °F 79% 29.93 in 10.0 mi ESE 9.2 mph - N/A   Clear
8:15 PM 80.8 °F 86.1 °F 74.5 °F 81% 29.93 in 10.0 mi ESE 10.4 mph - N/A   Clear
8:35 PM 80.1 °F 84.8 °F 74.5 °F 83% 29.94 in 10.0 mi ESE 8.1 mph - N/A   Clear
8:55 PM 79.3 °F - 74.7 °F 86% 29.94 in 10.0 mi East 6.9 mph - N/A   Clear
9:15 PM 78.8 °F - 74.7 °F 87% 29.95 in 10.0 mi ESE 5.8 mph - N/A   Clear
9:35 PM 78.6 °F - 74.3 °F 87% 29.96 in 10.0 mi ESE 5.8 mph - N/A   Clear
9:55 PM 78.8 °F - 73.4 °F 83% 29.96 in 10.0 mi SE 8.1 mph - N/A   Clear
10:15 PM 78.3 °F - 73.4 °F 85% 29.95 in 10.0 mi East 6.9 mph - N/A   Clear
10:35 PM 77.9 °F - 73.6 °F 86% 29.95 in 10.0 mi ESE 6.9 mph - N/A   Clear
10:55 PM 77.4 °F - 74.1 °F 90% 29.96 in 10.0 mi ESE 6.9 mph - N/A   Clear
11:15 PM 77.2 °F - 74.1 °F 90% 29.95 in 10.0 mi ESE 6.9 mph - N/A   Clear
11:35 PM 77.0 °F - 73.9 °F 90% 29.96 in 10.0 mi ESE 6.9 mph - N/A   Clear
11:55 PM 76.5 °F - 73.9 °F 92% 29.95 in 10.0 mi ESE 5.8 mph - N/A   Clear